Regional Weather Roundup
Issued by NWS Goodland, KS

Home | Current Version | Previous Version | Graphics & Text | Print | Product List | Glossary On
Versions: 1 2 3 4 5 6 7 8 9 10 11 12 13 14 15 16 17 18 19 20 21 22 23 24 25 26 27 28 29 30 31 32 33 34 35 36 37 38 39 40 41 42 43 44 45 46 47 48 49 50
000
ASUS43 KGLD 300159
RWRGLD

GOODLAND FORECAST AREA HOURLY WEATHER ROUNDUP
NATIONAL WEATHER SERVICE GOODLAND KS
700 PM MST THU JAN 29 2015

...OFFICIAL OBSERVATIONS...

CITY           SKY/WX    TMP DP  RH WIND       PRES   REMARKS
GOODLAND KS    PTCLDY    30  20  66 SE7       30.46F
HILL CITY KS   MOCLDY    26  17  68 N6        30.51R
IMPERIAL NEB     N/A     29  18  63 CALM      30.46F
MCCOOK NEB     PTCLDY    29  18  63 CALM      30.48S
AKRON CO       PTCLDY    34  18  52 SE8       30.41F
BURLINGTON CO  PTCLDY    32  17  54 SE6       30.45S
LIMON CO       PTCLDY    30  21  69 S5        30.43S
$$

...UNOFFICIAL OBSERVATIONS...

CITY           SKY/WX    TMP DP  RH WIND       PRES   REMARKS
COLBY KS       CLEAR     36  27  69 E6        30.48S
GOVE KS          N/A     27  32 100 MISG        N/A
NORTON KS      CLEAR     28  18  64 N5        30.48S
SHARON SPRINGS   N/A     32  19  58 CALM        N/A
KIT CARSON CO    N/A     33  17  51 MISG        N/A
YUMA CO          N/A     34  14  43 E5          N/A
$$



USA.gov is the U.S. government's official web portal to all federal, state and local government web resources and services.